sat.trackr.live / text

‹ back to catalog

STARLINK-32872

NORAD 63019 · 2025-032Q

PAYLOAD ACTIVE UNKNOWN

§ Identity

Operator
Country
US
Launch date
2025-02-15
Launch site
AFETR
Launch vehicle
Mass (kg)
RCS (m²)

Purposes: comms

External: N2YO · Heavens-Above · Gunter

§ Orbital elements

Epoch: 2026-09-21T10:37:05.986560Z

Period
94.27 min
Inclination
43.0024°
Eccentricity
0.0000639
Mean motion
15.27589759 rev/d
Perigee alt
482.6 km
Apogee alt
483.5 km
Semi-major
6,861.2 km
B*
3.9298e-4
RAAN
310.9061°
Arg perigee
271.5726°
Mean anomaly
88.5052°
Rev number
9,055

§ Raw data

STARLINK-328721 63019U 25032Q   26264.44243040  .00010570  00000+0  39298-3 0  99982 63019  43.0024 310.9061 0000639 271.5726  88.5052 15.27589759 90557

JSON: /api/v1/satellites/63019 · /tle

For live sub-satellite position, see the globe view (requires WebGL).

§ Visibility from observer

Set your observer location to see the next 7 days of passes ≥ 10°. The values pass through the URL so the page stays shareable.

No JS? Fill the form by hand. The geolocation button needs JavaScript.